Location: Observatorio Las Palmas
(29.0667°N, 110.9333°W)
Time: 12:37:06

Hubble Space Telescope - Visible Passes

Search period start: 26 November 2015 00:00
Search period end: 06 December 2015 00:00
Orbit: 540 x 544 km, 28.5° (Epoch: 25 November)

Date Brightness Start Highest point End Pass type
(mag) Time Alt. Az. Time Alt. Az. Time Alt. Az.
03 Dec 2.5 06:28:17 10° SW 06:31:58 31° SSE 06:35:41 10° E visible
04 Dec 3.6 04:41:14 11° SSE 04:41:48 12° SSE 04:43:26 10° SE visible
04 Dec 2.1 06:18:50 10° SW 06:22:42 38° SSE 06:26:36 10° E visible
05 Dec 3.5 04:33:14 15° SE 04:33:14 15° SE 04:35:05 10° ESE visible
05 Dec 1.7 06:09:28 10° WSW 06:13:27 46° SSE 06:17:27 10° E visible
